This demonstration page uses our WeatherBlox Daily Observations layout. Learn more.

Left ArrowRight Arrow

40.92945, -100.16068

Hourly Observations for April 25, 2016

Temp ( °F °C ) Dew Point ( °F °C ) Humidity (%) Winds ( mph kmh ) Pressure ( in mb ) Visibility ( mi km ) Precip ( " mm )
12:15 am 00:15 Clear 53 11.4 39 4 61 61 WNW 14 22 29.65 1004 10 16 N/A
12:35 am 00:35 Clear 51 10.7 39 3.9 63 63 NW 15 24 29.62 1003 10 16 N/A
12:55 am 00:55 Clear 51 10.5 38 3.5 62 62 NW 18 30 29.65 1004 10 16 N/A
1:15 am 01:15 Clear 50 10 38 3.2 63 63 WNW 15 24 29.65 1004 10 16 N/A
1:35 am 01:35 Clear 49 9.5 38 3.2 65 65 WNW 16 26 29.71 1006 10 16 N/A
1:55 am 01:55 Clear 49 9.7 38 3.2 64 64 WNW 14 22 29.71 1006 10 16 N/A
2:15 am 02:15 Clear 48 9.1 38 3.2 67 67 WNW 14 22 29.71 1006 10 16 N/A
2:35 am 02:35 Clear 47 8.1 38 3.2 71 71 W 10 17 29.71 1006 10 16 N/A
2:55 am 02:55 Clear 46 7.6 38 3.2 74 74 W 8 13 29.71 1006 10 16 N/A
3:15 am 03:15 Clear 45 7 38 3.1 76 76 W 9 15 29.71 1006 10 16 N/A
3:35 am 03:35 Clear 44 6.6 37 3 78 78 W 9 15 29.74 1007 10 16 N/A
3:55 am 03:55 Clear 44 6.8 37 3 77 77 WNW 12 19 29.74 1007 10 16 N/A
4:15 am 04:15 Clear 45 7 37 3 76 76 WNW 10 17 29.71 1006 10 16 N/A
4:35 am 04:35 Clear 44 6.4 37 3 79 79 WNW 8 13 29.74 1007 10 16 N/A
4:55 am 04:55 Clear 43 6.2 37 3 80 80 WNW 12 19 29.74 1007 10 16 N/A
5:15 am 05:15 Clear 43 6.2 37 2.9 80 80 WNW 12 19 29.74 1007 10 16 N/A
5:35 am 05:35 Clear 43 6.2 37 2.7 79 79 WNW 12 19 29.74 1007 10 16 N/A
5:55 am 05:55 Clear 43 6 37 2.6 79 79 WNW 12 19 29.74 1007 10 16 N/A
6:15 am 06:15 Clear 42 5.5 37 2.5 81 81 WNW 10 17 29.74 1007 10 16 N/A
6:35 am 06:35 Clear 41 5 36 2.3 83 83 WNW 10 17 29.74 1007 10 16 N/A
6:55 am 06:55 Sunny 42 5.5 37 2.5 81 81 WNW 13 20 29.74 1007 10 16 N/A
7:15 am 07:15 Sunny 42 5.5 36 2.2 80 80 NW 15 24 29.74 1007 10 16 N/A
7:35 am 07:35 Sunny 42 5.8 36 2.3 78 78 NW 14 22 29.74 1007 10 16 N/A
7:55 am 07:55 Sunny 44 6.7 37 2.8 76 76 WNW 13 20 29.77 1008 10 16 N/A
8:15 am 08:15 Sunny 45 7.4 37 2.9 73 73 WNW 10 17 29.74 1007 10 16 N/A
8:35 am 08:35 Sunny 47 8.2 38 3.1 71 71 WNW 10 17 29.77 1008 10 16 N/A
8:55 am 08:55 Sunny 47 8.3 38 3.2 71 71 WNW 12 19 29.77 1008 10 16 N/A
9:15 am 09:15 Sunny 49 9.4 38 3.6 67 67 NW 9 15 29.77 1008 10 16 N/A
9:35 am 09:35 Sunny 50 9.9 38 3.6 65 65 NW 9 15 29.77 1008 10 16 N/A
9:55 am 09:55 Sunny 51 10.6 39 4 64 64 NW 8 13 29.77 1008 7 11 N/A
10:15 am 10:15 Sunny 52 11.3 40 4.5 63 63 WNW 5 7 29.74 1007 10 16 N/A
10:35 am 10:35 Sunny 54 12.2 40 4.6 60 60 NNW 12 19 29.74 1007 10 16 N/A
10:55 am 10:55 Sunny 55 12.8 40 4.6 58 58 NW 7 11 29.74 1007 10 16 N/A
11:15 am 11:15 Sunny 56 13.4 40 4.7 56 56 NW 8 13 29.74 1007 10 16 N/A
11:35 am 11:35 Sunny 57 13.8 40 4.7 54 54 N 9 15 29.74 1007 10 16 N/A
11:55 am 11:55 Sunny 58 14.2 40 4.7 53 53 NNW 10 17 29.71 1006 10 16 N/A
12:15 pm 12:15 Sunny 59 15 42 5.6 54 54 N 7 11 29.71 1006 10 16 N/A
12:35 pm 12:35 Sunny 60 15.6 42 5.8 52 52 WNW 8 13 29.71 1006 10 16 N/A
12:55 pm 12:55 Sunny 60 15.8 42 5.3 50 50 WNW 7 11 29.68 1005 10 16 N/A
1:15 pm 13:15 Sunny 62 16.6 43 6.2 50 50 N 6 9 29.68 1005 10 16 N/A
1:35 pm 13:35 Sunny 63 17 44 6.4 50 50 WNW 12 19 29.68 1005 10 16 N/A
1:55 pm 13:55 Sunny 63 17.4 43 6.2 48 48 NW 7 11 29.65 1004 10 16 N/A
2:15 pm 14:15 Sunny 64 18 44 6.6 47 47 NNW 6 9 29.65 1004 10 16 N/A
2:35 pm 14:35 Sunny 65 18.3 43 6.1 45 45 N N/A 29.65 1004 10 16 N/A
2:55 pm 14:55 Sunny 66 19 44 6.5 44 44 N 3 6 29.62 1003 10 16 N/A
3:15 pm 15:15 Sunny 67 19.5 43 6 41 41 NNW 6 9 29.62 1003 10 16 N/A
3:35 pm 15:35 Sunny 68 19.8 43 6 41 41 NE 3 6 29.62 1003 10 16 N/A
3:55 pm 15:55 Sunny 68 20.2 42 5.8 39 39 ENE 5 7 29.62 1003 10 16 N/A
4:15 pm 16:15 Sunny 69 20.3 41 5.2 37 37 N N/A 29.59 1002 10 16 N/A
4:35 pm 16:35 Sunny 69 20.6 45 7.4 43 43 E 3 6 29.59 1002 10 16 N/A
4:55 pm 16:55 Sunny 70 20.9 43 6.1 38 38 N N/A 29.59 1002 10 16 N/A
5:15 pm 17:15 Sunny 71 21.4 43 6 37 37 ESE 3 6 29.59 1002 10 16 N/A
5:35 pm 17:35 Sunny 70 21.1 44 6.9 40 40 ESE 7 11 29.59 1002 10 16 N/A
5:55 pm 17:55 Sunny 70 21 44 6.9 40 40 ESE 8 13 29.59 1002 10 16 N/A
6:15 pm 18:15 Sunny 70 20.9 45 7 41 41 N N/A 29.59 1002 10 16 N/A
6:35 pm 18:35 Sunny 69 20.5 44 6.8 41 41 SE 8 13 29.59 1002 10 16 N/A
6:55 pm 18:55 Sunny 66 19 46 7.5 47 47 SE 5 7 29.62 1003 10 16 N/A
7:15 pm 19:15 Sunny 65 18.3 45 7 48 48 E 7 11 29.62 1003 10 16 N/A
7:35 pm 19:35 Sunny 64 17.9 45 7.4 50 50 E 7 11 29.62 1003 10 16 N/A
7:55 pm 19:55 Sunny 62 16.7 46 7.8 56 56 E 9 15 29.65 1004 10 16 N/A
8:15 pm 20:15 Sunny 61 16 46 7.6 58 58 E 8 13 29.65 1004 10 16 N/A
8:35 pm 20:35 Clear 59 15.1 46 7.8 62 62 E 8 13 29.65 1004 10 16 N/A
8:55 pm 20:55 Clear 56 13.6 46 7.7 68 68 ENE 10 17 29.65 1004 10 16 N/A
9:15 pm 21:15 Clear 56 13.3 46 7.5 68 68 E 10 17 29.68 1005 10 16 N/A
9:35 pm 21:35 Clear 56 13.5 46 7.5 67 67 E 10 17 29.65 1004 10 16 N/A
9:55 pm 21:55 Clear 56 13.1 45 7.1 67 67 E 10 17 29.68 1005 10 16 N/A
10:15 pm 22:15 Clear 56 13.4 45 7.2 66 66 E 10 17 29.68 1005 10 16 N/A
10:35 pm 22:35 Clear 55 13 45 7.2 68 68 E 8 13 29.68 1005 10 16 N/A
10:55 pm 22:55 Clear 55 12.6 45 7.2 70 70 E 9 15 29.68 1005 10 16 N/A
11:15 pm 23:15 Clear 54 12.4 45 7.2 71 71 E 8 13 29.68 1005 10 16 N/A
11:35 pm 23:35 Clear 54 12 46 7.5 74 74 ENE 8 13 29.71 1006 10 16 N/A
11:55 pm 23:55 Clear 54 12.2 45 7.3 72 72 ENE 9 15 29.71 1006 10 16 N/A

Powered by AerisWeather